St. Francis, KS

4:25 AM CDT on August 22, 2017 (GMT -0500)
Cheyenne County Municipal

Weather History for KSYF - March, 2013

Change the Weather History Date:

Saturday, March 30, 2013

  Actual Average Record
Temperature  
Mean Temperature 55 °F -  
Max Temperature 69 °F 57 °F 77 °F (2015)
Min Temperature 42 °F 28 °F 33 °F (2017)
Degree Days  
Heating Degree Days 10    
Growing Degree Days 5 (Base 50)    
Moisture  
Dew Point 35 °F    
Average Humidity 56    
Maximum Humidity 86    
Minimum Humidity 21    
Precipitation  
Precipitation 0.00 in - - ()
Sea Level Pressure  
Sea Level Pressure 30.05 in    
Wind  
Wind Speed 9 mph (NW)    
Max Wind Speed 18 mph    
Max Gust Speed 25 mph    
Visibility 10 miles    
Events Rain    
Averages and records for this station are not official NWS values.
T = Trace of Precipitation, MM = Missing Value Source: NWS Daily Summary

Daily Weather History Graph

Daily Weather History Graph

Search for Another Location

Airport or City:

Trip Planner

Search our weather history database for the weather conditions in past years. The results will help you decide how hot, cold, wet, or windy it might be!

Date:

Astronomy

Mar. 30, 2013 Rise Set
Actual Time 7:34 AM CDT 8:09 PM CDT
Civil Twilight 7:06 AM CDT 8:36 PM CDT
Nautical Twilight 6:34 AM CDT 9:08 PM CDT
Astronomical Twilight 6:02 AM CDT 9:41 PM CDT
Moon No Moon Rise 9:31 AM CDT (3/30)
Length of Visible Light 13h 29m
Length of Day
12h 35m
Waning Gibbous, 86% of the Moon is Illuminated
Mar 30
Waning Gibbous
Apr 2
Last Quarter
Apr 10
New
Apr 18
First Quarter
Apr 25
Full

Hourly Weather History & Observations

Time (CDT) Temp. Windchill Dew Point Humidity Pressure Visibility Wind Dir Wind Speed Gust Speed Precip Events Conditions
12:15 AM 51.3 °F - 37.2 °F 59% 30.02 in 10.0 mi WSW 9.2 mph - N/A   Scattered Clouds
12:35 AM 48.6 °F - 37.6 °F 66% 30.02 in 10.0 mi West 8.1 mph - N/A   Scattered Clouds
12:55 AM 46.8 °F - 37.4 °F 70% 30.02 in 10.0 mi SW 10.4 mph - N/A   Clear
1:15 AM 45.7 °F 41.0 °F 37.0 °F 72% 30.01 in 10.0 mi SW 9.2 mph - N/A   Clear
1:35 AM 46.8 °F - 37.4 °F 70% 30.01 in 10.0 mi SW 10.4 mph - N/A   Clear
1:55 AM 46.6 °F - 37.2 °F 70% 30.01 in 10.0 mi WSW 8.1 mph - N/A   Clear
2:15 AM 43.7 °F 38.6 °F 36.7 °F 76% 30.01 in 10.0 mi SW 9.2 mph - N/A   Clear
2:35 AM 43.5 °F 37.5 °F 36.9 °F 77% 30.01 in 10.0 mi SW 11.5 mph - N/A   Scattered Clouds
2:55 AM 43.7 °F 38.6 °F 36.9 °F 77% 30.01 in 10.0 mi WSW 9.2 mph - N/A   Scattered Clouds
3:15 AM 46.4 °F 41.5 °F 35.6 °F 66% 30.01 in 10.0 mi West 10.4 mph - N/A   Clear
3:35 AM 46.0 °F 42.5 °F 34.9 °F 65% 30.01 in 10.0 mi WSW 6.9 mph - N/A   Clear
3:55 AM 46.4 °F 41.9 °F 35.1 °F 65% 30.01 in 10.0 mi West 9.2 mph - N/A   Clear
4:15 AM 45.9 °F 41.7 °F 34.7 °F 65% 30.01 in 10.0 mi WSW 8.1 mph - N/A   Clear
4:35 AM 43.9 °F 38.8 °F 34.5 °F 70% 30.00 in 10.0 mi West 9.2 mph - N/A   Clear
4:55 AM 47.5 °F - 34.7 °F 61% 30.01 in 10.0 mi WNW 16.1 mph 21.9 mph N/A   Clear
5:15 AM 46.4 °F 40.4 °F 34.7 °F 64% 30.01 in 10.0 mi WNW 13.8 mph - N/A   Clear
5:35 AM 45.5 °F 38.9 °F 34.7 °F 66% 30.01 in 10.0 mi WNW 15.0 mph - N/A   Clear
5:55 AM 45.5 °F 39.2 °F 34.7 °F 66% 30.02 in 10.0 mi WNW 13.8 mph - N/A   Clear
6:15 AM 44.4 °F 38.2 °F 34.7 °F 69% 30.02 in 10.0 mi WNW 12.7 mph - N/A   Clear
6:35 AM 43.7 °F 37.3 °F 34.3 °F 70% 30.03 in 10.0 mi WNW 12.7 mph - N/A   Clear
7:15 AM 42.8 °F 37.5 °F 33.8 °F 70% 30.04 in 10.0 mi NW 9.2 mph - N/A   Clear
7:35 AM 43.7 °F 38.1 °F 33.8 °F 68% 30.05 in 10.0 mi WNW 10.4 mph - N/A   Clear
7:55 AM 43.9 °F 38.3 °F 33.8 °F 68% 30.06 in 10.0 mi NW 10.4 mph - N/A   Clear
8:15 AM 42.8 °F 38.0 °F 33.8 °F 70% 30.07 in 10.0 mi WNW 8.1 mph - N/A   Clear
8:35 AM 45.7 °F 42.0 °F 34.3 °F 65% 30.07 in 10.0 mi NW 6.9 mph - N/A   Clear
8:55 AM 47.3 °F - 34.9 °F 62% 30.07 in 10.0 mi NW 6.9 mph - N/A   Clear
9:15 AM 49.5 °F - 34.7 °F 57% 30.08 in 10.0 mi NNW 9.2 mph - N/A   Clear
9:35 AM 50.9 °F - 34.3 °F 53% 30.08 in 10.0 mi North 8.1 mph - N/A   Clear
9:55 AM 53.2 °F - 33.4 °F 47% 30.08 in 10.0 mi North 8.1 mph - N/A   Clear
10:15 AM 54.9 °F - 31.8 °F 42% 30.08 in 10.0 mi North 11.5 mph - N/A   Clear
10:35 AM 56.7 °F - 31.8 °F 39% 30.08 in 10.0 mi North 11.5 mph - N/A   Clear
10:55 AM 58.5 °F - 31.1 °F 35% 30.08 in 10.0 mi North 10.4 mph - N/A   Clear
11:15 AM 59.0 °F - 30.7 °F 34% 30.08 in 10.0 mi North 10.4 mph 17.3 mph N/A   Clear
11:35 AM 61.7 °F - 29.3 °F 29% 30.08 in 10.0 mi NNE 12.7 mph - N/A   Clear
12:15 PM 63.5 °F - 29.5 °F 28% 30.08 in 10.0 mi NE 8.1 mph 17.3 mph N/A   Clear
12:35 PM 63.7 °F - 29.1 °F 27% 30.07 in 10.0 mi NE 9.2 mph 16.1 mph N/A   Clear
12:55 PM 64.0 °F - 29.5 °F 27% 30.07 in 10.0 mi NE 4.6 mph - N/A   Clear
1:15 PM 65.1 °F - 29.7 °F 26% 30.05 in 10.0 mi NE 10.4 mph - N/A   Clear
1:55 PM 64.2 °F - 28.4 °F 26% 30.04 in 10.0 mi NNW 3.5 mph - N/A   Clear
2:15 PM 65.3 °F - 28.6 °F 25% 30.04 in 10.0 mi East 3.5 mph - N/A   Clear
2:35 PM 66.6 °F - 29.1 °F 25% 30.03 in 10.0 mi North 6.9 mph 16.1 mph N/A   Clear
2:55 PM 65.1 °F - 29.1 °F 26% 30.03 in 10.0 mi NE 3.5 mph - N/A   Clear
3:15 PM 66.0 °F - 29.1 °F 25% 30.01 in 10.0 mi North 4.6 mph - N/A   Clear
3:35 PM 67.3 °F - 28.8 °F 24% 30.00 in 10.0 mi NNW 6.9 mph - N/A   Clear
3:55 PM 68.7 °F - 28.2 °F 22% 29.99 in 10.0 mi North 10.4 mph 17.3 mph N/A   Clear
4:15 PM 67.8 °F - 28.6 °F 23% 29.98 in 10.0 mi NW 5.8 mph - N/A   Clear
4:35 PM 67.8 °F - 27.1 °F 22% 29.97 in 10.0 mi Calm Calm - N/A   Clear
5:15 PM 68.9 °F - 27.3 °F 21% 29.96 in 10.0 mi North 8.1 mph - N/A   Clear
5:35 PM 66.7 °F - 27.9 °F 23% 29.97 in 10.0 mi NNW 9.2 mph - N/A   Clear
6:15 PM 54.7 °F - 44.2 °F 68% 30.01 in 10.0 mi North 18.4 mph 25.3 mph N/A   Light Drizzle
6:35 PM 56.3 °F - 43.5 °F 62% 30.01 in 10.0 mi North 13.8 mph 18.4 mph N/A   Mostly Cloudy
6:55 PM 56.3 °F - 42.4 °F 60% 30.01 in 10.0 mi NNE 11.5 mph - N/A   Overcast
7:15 PM 55.9 °F - 41.7 °F 59% 30.02 in 10.0 mi North 13.8 mph - N/A   Overcast
7:35 PM 55.4 °F - 42.1 °F 61% 30.03 in 10.0 mi North 12.7 mph - N/A   Overcast
8:15 PM 53.2 °F - 43.2 °F 69% 30.07 in 10.0 mi NW 9.2 mph - N/A Rain Rain
8:35 PM 51.6 °F - 45.3 °F 79% 30.08 in 10.0 mi NNW 5.8 mph - N/A Rain Light Rain
8:55 PM 51.1 °F - 46.0 °F 83% 30.10 in 7.0 mi West 3.5 mph - N/A Rain Light Rain
9:15 PM 50.5 °F - 45.7 °F 83% 30.10 in 10.0 mi Calm Calm - N/A Rain Light Rain
9:35 PM 50.4 °F - 44.8 °F 81% 30.10 in 10.0 mi North 3.5 mph - N/A Rain Light Rain
9:55 PM 50.2 °F - 44.8 °F 82% 30.11 in 10.0 mi Calm Calm - N/A   Overcast
10:15 PM 50.0 °F - 45.0 °F 83% 30.12 in 10.0 mi NNW 3.5 mph - N/A   Overcast
10:55 PM 48.2 °F - 41.2 °F 77% 30.15 in 10.0 mi North 13.8 mph 20.7 mph N/A   Scattered Clouds
11:15 PM 46.2 °F 42.2 °F 40.6 °F 81% 30.15 in 10.0 mi North 8.1 mph - N/A   Clear
11:35 PM 44.1 °F 40.1 °F 39.7 °F 85% 30.16 in 10.0 mi North 6.9 mph - N/A   Clear
11:55 PM 43.0 °F 40.3 °F 39.0 °F 86% 30.16 in 10.0 mi North 4.6 mph - N/A   Clear